EW2138 Weather Reports


time (UTC)temp
C
wind
direction
speed
KPH
gust
KPH
rain 1hr
cm
rain 24hr
cm
rain mn
cm
humidity
%
barometer
mb
20260510134545 10 189 0.0 8.0 0.00 0.05 0.05 89 1009.3
20260510133036 10 272 0.0 11.3 0.00 0.05 0.05 89 1009.3
20260510131535 10 203 0.0 6.4 0.00 0.05 0.05 89 1009.3
20260510130035 10 215 0.0 9.7 0.00 0.05 0.05 89 1009.2
20260510124538 10 198 1.6 9.7 0.00 0.05 0.05 89 1008.8
20260510123034 10 212 0.0 12.9 0.00 0.05 0.05 89 1009.2
20260510121532 10 253 0.0 6.4 0.00 0.05 0.05 89 1009.4
20260510120037 10 217 1.6 9.7 0.00 0.05 0.05 89 1008.9
20260510114527 9 202 1.6 0.0 0.00 0.00 0.05 90 1009.0
20260510113025 9 241 3.2 6.4 0.00 0.05 0.05 89 1008.8
20260510111517 8 249 3.2 9.7 0.00 0.05 0.05 90 1008.5
20260510110018 8 202 0.0 9.7 0.00 0.05 0.05 92 1008.4
20260510104515 8 229 0.0 11.3 0.00 0.05 0.05 92 1008.2
20260510103009 8 161 1.6 0.0 0.00 0.00 0.05 93 1008.0
20260510101507 8 175 0.0 11.3 0.00 0.05 0.05 93 1007.9
20260510100007 8 126 0.0 6.4 0.00 0.05 0.05 93 1008.0
20260510094520 8 155 0.0 8.0 0.00 0.05 0.05 93 1007.6
20260510093006 8 175 0.0 8.0 0.00 0.05 0.05 93 1007.4
20260510091506 8 184 0.0 8.0 0.00 0.05 0.05 93 1007.1
20260510090005 8 144 3.2 12.9 0.00 0.05 0.05 94 1007.0
20260510084504 8 175 0.0 8.0 0.03 0.05 0.05 95 1007.1
20260510083002 8 184 0.0 4.8 0.05 0.05 0.05 96 1007.1
20260510081501 8 232 1.6 12.9 0.05 0.05 0.05 96 1007.3
20260510080104 8 188 1.6 11.3 0.05 0.05 0.05 95 1007.9
20260510074603 8 212 0.0 11.3 0.03 0.03 0.03 95 1007.8
20260510073058 8 224 1.6 9.7 0.00 0.00 0.00 94 1007.7
20260510071557 8 202 1.6 9.7 0.00 0.00 0.00 95 1007.8
20260510070057 8 184 0.0 14.5 0.00 0.00 0.00 97 1007.7
20260510064551 7 177 1.6 16.1 0.00 0.00 0.00 99 1007.7
20260510063051 7 157 3.2 11.3 0.00 0.00 0.00 99 1007.5
20260510061548 7 185 1.6 12.9 0.00 0.00 0.00 99 1007.4
20260510060053 7 201 4.8 12.9 0.00 0.00 0.00 99 1007.8
20260510054547 7 179 1.6 14.5 0.00 0.00 0.00 99 1007.7
20260510053043 6 340 1.6 12.9 0.00 0.00 0.00 99 1007.9
20260510051554 6 190 1.6 12.9 0.00 0.00 0.00 99 1008.0
20260510050038 6 326 1.6 14.5 0.00 0.00 0.00 99 1008.0
20260510044538 6 117 1.6 11.3 0.00 0.00 0.00 99 1007.8
20260510043040 6 120 1.6 12.9 0.00 0.00 0.00 99 1008.1
20260510041531 6 178 3.2 14.5 0.00 0.00 0.00 99 1007.6
20260510040028 6 184 3.2 14.5 0.00 0.00 0.00 99 1007.8
20260510034526 6 188 1.6 12.9 0.00 0.00 0.00 99 1008.0
20260510033025 6 161 1.6 12.9 0.00 0.00 0.00 99 1008.3
20260510031535 6 146 1.6 11.3 0.00 0.00 0.00 99 1008.4
20260510030023 6 167 1.6 11.3 0.00 0.00 0.00 99 1008.2
20260510024523 6 140 1.6 11.3 0.00 0.00 0.00 99 1008.4
20260510023037 6 110 0.0 16.1 0.00 0.00 0.00 98 1008.5
20260510021523 6 123 0.0 11.3 0.00 0.00 0.00 98 1008.4
20260510020021 6 181 1.6 8.0 0.00 0.00 0.00 98 1008.7
20260510014521 6 165 1.6 14.5 0.00 0.00 0.00 98 1008.4
20260510013021 6 229 1.6 11.3 0.00 0.00 0.00 98 1008.6
20260510011524 6 169 3.2 11.3 0.00 0.00 0.00 98 1008.5
20260510010024 6 194 1.6 14.5 0.00 0.00 0.00 98 1008.8
20260510004518 6 165 3.2 16.1 0.00 0.00 0.00 98 1008.7
20260510003018 6 157 3.2 16.1 0.00 0.00 0.00 98 1008.6
20260510001516 6 15 1.6 11.3 0.00 0.00 0.00 98 1008.3
20260510000014 6 119 0.0 9.7 0.00 0.00 0.00 98 1008.3
20260509234514 6 338 1.6 14.5 0.00 0.00 0.00 97 1008.2
20260509233014 6 62 1.6 14.5 0.00 0.00 0.00 97 1008.1
20260509231513 6 167 0.0 11.3 0.00 0.00 0.00 97 1008.2
20260509230012 6 65 1.6 12.9 0.00 0.00 0.00 97 1008.3
20260509224511 6 169 1.6 12.9 0.00 0.00 0.00 97 1008.2
20260509223011 6 230 0.0 12.9 0.00 0.00 0.00 97 1008.2
20260509221509 6 20 1.6 9.7 0.00 0.00 0.00 97 1008.4
20260509220009 6 209 1.6 11.3 0.00 0.00 0.00 97 1008.4
20260509214506 6 161 1.6 11.3 0.00 0.00 0.00 96 1008.5
20260509213005 6 148 0.0 11.3 0.00 0.00 0.00 96 1008.7
20260509211504 6 107 3.2 11.3 0.00 0.00 0.00 96 1008.7
20260509210004 6 355 0.0 4.8 0.00 0.00 0.00 95 1008.6
20260509204503 6 24 0.0 9.7 0.00 0.00 0.00 95 1008.8
20260509203002 6 146 1.6 12.9 0.00 0.00 0.00 95 1008.6
20260509201601 6 173 1.6 14.5 0.00 0.00 0.00 95 1008.8
20260509194600 6 186 1.6 9.7 0.00 0.00 0.00 95 1009.1
20260509193056 6 180 3.2 11.3 0.00 0.00 0.00 94 1009.2
20260509191558 6 180 1.6 11.3 0.00 0.00 0.00 94 1009.3
20260509190100 6 238 3.2 12.9 0.00 0.00 0.00 93 1009.4
20260509184551 6 46 1.6 9.7 0.00 0.00 0.00 93 1009.5
20260509183050 6 219 1.6 6.4 0.00 0.00 0.00 92 1009.7
20260509181605 6 327 0.0 11.3 0.00 0.00 0.00 91 1009.8
20260509180048 6 171 0.0 9.7 0.00 0.00 0.00 90 1009.8
20260509174550 7 136 1.6 12.9 0.00 0.00 0.00 89 1010.0
20260509173044 7 178 0.0 14.5 0.00 0.00 0.00 89 1010.2
20260509171542 7 240 1.6 9.7 0.00 0.00 0.00 89 1010.3
20260509170042 6 202 0.0 12.9 0.00 0.00 0.00 88 1010.4
20260509164543 6 189 1.6 16.1 0.00 0.00 0.00 84 1010.4
20260509163050 7 307 3.2 12.9 0.00 0.00 0.00 79 1010.2
20260509161535 8 22 3.2 9.7 0.00 0.00 0.00 71 1010.7
20260509160034 8 178 3.2 9.7 0.00 0.00 0.00 66 1010.7
20260509154533 8 163 0.0 11.3 0.00 0.00 0.00 60 1010.7
20260509153030 9 360 1.6 11.3 0.00 0.00 0.00 58 1011.0
20260509151529 9 32 0.0 6.4 0.00 0.00 0.00 56 1011.1
20260509150028 9 86 0.0 14.5 0.00 0.00 0.00 54 1011.2
20260509144527 9 214 0.0 9.7 0.00 0.00 0.00 51 1011.2
20260509143029 10 137 0.0 11.3 0.00 0.00 0.00 49 1011.0
20260509141530 10 163 0.0 11.3 0.00 0.00 0.00 48 1011.1
20260509140023 10 212 1.6 9.7 0.00 0.00 0.00 46 1011.0